Regional Weather Roundup
Issued by NWS Cleveland, OH

Home | Current Version | Previous Version | Graphics & Text | Print | Product List | Glossary On
Versions: 1 2 3 4 5 6 7 8 9 10 11 12 13 14 15 16 17 18 19 20 21 22 23 24 25 26 27 28 29 30 31 32 33 34 35 36 37 38 39 40 41 42 43 44 45 46 47 48 49 50
195
ASUS41 KCLE 211010
RWRCLE
OHIO REGIONAL WEATHER ROUNDUP
NATIONAL WEATHER SERVICE WILMINGTON, OH
600 AM EDT SAT APR 21 2018

NOTE: "FAIR" INDICATES FEW OR NO CLOUDS BELOW 12,000 FEET WITH NO
SIGNIFICANT WEATHER AND/OR OBSTRUCTIONS TO VISIBILITY.

OHZ001>008-015>018-024>027-034-035-043-044-211100-
   NORTHWEST OHIO

CITY           SKY/WX    TMP DP  RH WIND       PRES   REMARKS
DEFIANCE       FAIR      33  27  78 CALM      30.46R
FINDLAY        FAIR      35  24  64 E5        30.44S
TOLEDO EXPRESS FAIR      32  27  81 CALM      30.46S
TOLEDO EXEC    FAIR      33  25  72 CALM      30.47S
LIMA           FAIR      34  23  64 SE6       30.44R WCI  29
$$

OHZ009>014-019>023-028>033-038-089-211100-
   NORTHEAST OHIO

CITY           SKY/WX    TMP DP  RH WIND       PRES   REMARKS
CLE-HOPKINS    FAIR      30  24  78 SE5       30.49R WCI  25
CLE-LAKEFRONT  FAIR      32  24  72 S6        30.47R WCI  26
CUY CO. ARPT   NOT AVBL
LORAIN-ELYRIA  FAIR      27  22  81 CALM      30.47R
ASHTABULA      FAIR      27  24  89 CALM      30.46R
AKRON-CANTON   FAIR      31  20  63 CALM      30.46R
WOOSTER        FAIR      26  23  88 CALM      30.46S
MANSFIELD      FAIR      31  23  72 CALM      30.45R
YOUNGSTOWN     FAIR      29  21  72 CALM      30.44S
$$

OHZ042-051>053-060>062-070>072-077>081-211100-
  SOUTHWEST OHIO

CITY           SKY/WX    TMP DP  RH WIND       PRES   REMARKS
CINC-COVINGTON FAIR      39  26  59 E7        30.40F
CINC-LUNKEN    FAIR      35  35 100 CALM      30.44S
HAMILTON       FAIR      34  30  85 CALM      30.44S
DAYTON         FAIR      37  24  59 E9        30.44S
WRIGHT-PAT AFB FAIR      35  26  69 N3        30.44S
DAYTON GENERAL FAIR      39  23  52 E7        30.42S
WILMINGTON     FAIR      35  26  69 E7        30.43S WCI  29
$$

OHZ036-037-039>041-045>050-054>059-063>069-073>076-082>088-211100-
  CENTRAL AND SOUTHEAST OHIO

CITY           SKY/WX    TMP DP  RH WIND       PRES   REMARKS
COLUMBUS       FAIR      31  25  78 N5        30.45S WCI  26
OSU AIRPORT    FAIR      32  22  66 NE3       30.45S
BOLTON FIELD   FAIR      32  24  73 CALM      30.45S
RICKENBACK AFB FAIR      34  23  63 NE6       30.45S WCI  29
NEWARK         FAIR      28  26  92 CALM      30.45S
MARION         FAIR      27  22  81 SE3       30.46R
LANCASTER      FAIR      30  27  88 CALM      30.45S
ZANESVILLE     NOT AVBL
NEW PHILLY     FAIR      27  23  85 CALM      30.47S
$$




USA.gov is the U.S. government's official web portal to all federal, state and local government web resources and services.